Wautoma, WI

8:19 PM CDT on August 20, 2017 (GMT -0500)
Wautoma

Weather History for KY50 - January, 2013

Change the Weather History Date:

Tuesday, January 29, 2013

  Actual Average (KPCZ) Record (KPCZ)
Temperature  
Mean Temperature 36 °F -  
Max Temperature 41 °F 25 °F 52 °F (1989)
Min Temperature 32 °F 7 °F -23 °F (1951)
Degree Days  
Heating Degree Days 28    
Moisture  
Dew Point 34 °F    
Average Humidity 100    
Maximum Humidity 100    
Minimum Humidity 100    
Precipitation  
Precipitation 0.85 in - - ()
Sea Level Pressure  
Sea Level Pressure 29.58 in    
Wind  
Wind Speed 4 mph (NNW)    
Max Wind Speed 14 mph    
Max Gust Speed 20 mph    
Visibility 2 miles    
Events Fog , Rain    
Averages and records for this station are not official NWS values.
T = Trace of Precipitation, MM = Missing Value Source: NWS Daily Summary

Daily Weather History Graph

Daily Weather History Graph

Search for Another Location

Airport or City:

Trip Planner

Search our weather history database for the weather conditions in past years. The results will help you decide how hot, cold, wet, or windy it might be!

Date:

Astronomy

Jan. 29, 2013 Rise Set
Actual Time 7:17 AM CST 5:03 PM CST
Civil Twilight 6:46 AM CST 5:34 PM CST
Nautical Twilight 6:11 AM CST 6:09 PM CST
Astronomical Twilight 5:37 AM CST 6:43 PM CST
Moon 8:08 PM CST (1/29) 8:07 AM CST (1/29)
Length of Visible Light 10h 47m
Length of Day
9h 46m
Waning Gibbous, 93% of the Moon is Illuminated
Jan 29
Waning Gibbous
Feb 3
Last Quarter
Feb 10
New
Feb 17
First Quarter
Feb 25
Full

Hourly Weather History & Observations

Time (CST) Temp. Windchill Dew Point Humidity Pressure Visibility Wind Dir Wind Speed Gust Speed Precip Events Conditions
12:56 AM 32.0 °F 24.8 °F 32.0 °F 100% 29.75 in 1.5 mi East 8.1 mph - 0.05 in   Overcast
12:58 AM 32.0 °F - 32.0 °F 100% 29.75 in 1.2 mi Calm Calm - 0.02 in   Overcast
1:07 AM 32.0 °F 26.4 °F 32.0 °F 100% 29.75 in 1.5 mi East 5.8 mph - 0.06 in   Overcast
1:18 AM 32.0 °F - 32.0 °F 100% 29.75 in 2.0 mi Calm Calm - 0.11 in   Overcast
1:27 AM 32.0 °F 27.5 °F 32.0 °F 100% 29.75 in 1.8 mi ESE 4.6 mph - 0.16 in   Overcast
1:40 AM 32.0 °F 24.8 °F 32.0 °F 100% 29.72 in 1.5 mi East 8.1 mph - 0.22 in   Overcast
1:56 AM 32.0 °F 28.7 °F 32.0 °F 100% 29.73 in 1.8 mi East 3.5 mph - 0.26 in   Overcast
2:03 AM 32.0 °F 25.6 °F 32.0 °F 100% 29.69 in 2.0 mi East 6.9 mph - 0.01 in   Overcast
2:47 AM 33.8 °F 27.7 °F 33.8 °F 100% 29.65 in 1.8 mi East 6.9 mph - 0.03 in Rain Light Rain
2:56 AM 33.8 °F - 33.8 °F 100% 29.65 in 1.8 mi Calm Calm - N/A Rain Light Rain
3:07 AM 33.8 °F - 33.8 °F 100% 29.66 in 2.5 mi Calm Calm - 0.00 in Rain Light Rain
3:33 AM 33.8 °F - 33.8 °F 100% 29.65 in 1.5 mi Calm Calm - 0.01 in Rain Light Rain
3:56 AM 32.9 °F 29.8 °F 32.9 °F 100% 29.65 in 1.2 mi East 3.5 mph - 0.02 in Rain Light Rain
4:06 AM 33.8 °F - 33.8 °F 100% 29.64 in 1.0 mi Calm Calm - 0.01 in Rain Light Rain
4:56 AM 32.9 °F 27.5 °F 32.9 °F 100% 29.60 in 1.8 mi NNE 5.8 mph - 0.03 in Rain Light Rain
5:21 AM 33.8 °F - 33.8 °F 100% 29.56 in 1.2 mi Calm Calm - 0.00 in Rain Light Rain
5:31 AM 33.8 °F 27.7 °F 33.8 °F 100% 29.57 in 1.0 mi North 6.9 mph - 0.00 in Rain Light Rain
5:41 AM 33.8 °F 30.8 °F 33.8 °F 100% 29.58 in 1.2 mi East 3.5 mph - 0.00 in Rain Light Rain
5:56 AM 33.8 °F - 33.8 °F 100% 29.57 in 1.2 mi Calm Calm - N/A Rain Light Rain
6:07 AM 33.8 °F - 33.8 °F 100% 29.57 in 1.5 mi Calm Calm - 0.00 in Rain Light Rain
6:19 AM 33.8 °F - 33.8 °F 100% 29.56 in 2.0 mi Calm Calm - 0.00 in   Overcast
6:28 AM 33.8 °F - 33.8 °F 100% 29.57 in 1.8 mi Calm Calm - 0.00 in   Overcast
6:37 AM 33.8 °F - 33.8 °F 100% 29.57 in 2.0 mi Calm Calm - 0.00 in Rain Light Rain
6:46 AM 33.8 °F - 33.8 °F 100% 29.56 in 1.8 mi Calm Calm - 0.00 in Rain Light Rain
6:56 AM 32.9 °F - 32.9 °F 100% 29.57 in 0.8 mi Calm Calm - 0.00 in   Overcast
7:14 AM 33.8 °F - 33.8 °F 100% 29.54 in 0.5 mi Calm Calm - 0.00 in Fog , Rain Light Rain
7:24 AM 33.8 °F - 33.8 °F 100% 29.55 in 0.2 mi Calm Calm - 0.00 in Fog , Rain Light Rain
7:46 AM 33.8 °F - 33.8 °F 100% 29.55 in 0.2 mi Calm Calm - 0.00 in Fog , Rain Light Rain
7:56 AM 34.0 °F - 34.0 °F 100% 29.56 in 0.2 mi Calm Calm - 0.00 in Fog , Rain Light Rain
8:56 AM 33.8 °F - 33.8 °F 100% 29.53 in 0.2 mi Calm Calm - N/A Fog Fog
9:56 AM 36.0 °F 30.3 °F - N/A% 29.52 in 0.2 mi South 6.9 mph - N/A Fog Fog
10:56 AM 39.9 °F - - N/A% 29.54 in 0.2 mi Calm Calm - N/A Fog Fog
11:56 AM 41.0 °F - - N/A% 29.53 in 0.2 mi Calm Calm - N/A Fog Fog
12:56 PM 41.9 °F 36.9 °F - N/A% 29.54 in 0.5 mi WNW 8.1 mph - N/A Fog Fog
1:08 PM 41.0 °F 35.8 °F - N/A% 29.51 in 1.0 mi WNW 8.1 mph - N/A   Overcast
1:15 PM 41.0 °F 35.2 °F - N/A% 29.52 in 0.8 mi WNW 9.2 mph - N/A   Overcast
1:19 PM 41.0 °F 33.9 °F - N/A% 29.52 in 1.2 mi WNW 12.7 mph - N/A   Overcast
1:23 PM 39.2 °F 31.2 °F - N/A% 29.52 in 2.0 mi WNW 13.8 mph 19.6 mph N/A   Overcast
1:25 PM 39.2 °F 31.6 °F - N/A% 29.53 in 3.0 mi WNW 12.7 mph - N/A   Overcast
1:56 PM 38.8 °F 32.1 °F - N/A% 29.55 in 4.0 mi West 10.4 mph - N/A   Haze
2:17 PM 39.2 °F 35.9 °F - N/A% 29.53 in 7.0 mi NW 4.6 mph - N/A   Overcast
2:56 PM 36.9 °F 29.6 °F - N/A% 29.56 in 5.0 mi WNW 10.4 mph - 0.47 in   Haze
3:06 PM 37.4 °F 31.4 °F - N/A% 29.55 in 4.0 mi WNW 8.1 mph - N/A   Haze
3:33 PM 37.4 °F 32.8 °F - N/A% 29.54 in 2.0 mi NW 5.8 mph - 0.00 in Rain Light Rain
3:41 PM 37.4 °F 34.9 °F - N/A% 29.54 in 1.8 mi WNW 3.5 mph - 0.00 in Rain Light Rain
3:56 PM 36.9 °F 29.6 °F - N/A% 29.56 in 2.0 mi NW 10.4 mph - 0.00 in Rain Light Rain
4:20 PM 35.6 °F 29.9 °F - N/A% 29.54 in 1.8 mi NNW 6.9 mph - 0.00 in   Overcast
4:56 PM 36.0 °F 31.1 °F - N/A% 29.55 in 1.2 mi NNW 5.8 mph - 0.00 in   Overcast
5:04 PM 35.6 °F 29.2 °F - N/A% 29.54 in 2.0 mi NNW 8.1 mph - N/A   Overcast
5:11 PM 35.6 °F 27.5 °F - N/A% 29.54 in 3.0 mi NNW 11.5 mph - N/A   Overcast
5:18 PM 35.6 °F 26.6 °F - N/A% 29.55 in 5.0 mi NNW 13.8 mph - N/A   Haze
5:56 PM 34.9 °F 29.0 °F 34.9 °F 100% 29.54 in 6.0 mi North 6.9 mph - N/A   Overcast
6:56 PM 34.0 °F 28.0 °F 34.0 °F 100% 29.57 in 5.0 mi NNW 6.9 mph - N/A   Overcast
7:56 PM 34.0 °F - 34.0 °F 100% 29.55 in 4.0 mi Calm Calm - N/A   Overcast
8:31 PM 35.6 °F - 35.6 °F 100% 29.54 in 5.0 mi Calm Calm - 0.00 in   Overcast
8:56 PM 35.6 °F 30.7 °F 35.6 °F 100% 29.53 in 3.0 mi North 5.8 mph - N/A Rain Light Rain
9:56 PM 34.9 °F 29.0 °F 34.9 °F 100% 29.55 in 6.0 mi North 6.9 mph - 0.01 in Rain Light Rain
10:18 PM 35.6 °F 29.9 °F 35.6 °F 100% 29.54 in 7.0 mi North 6.9 mph - 0.00 in Rain Light Rain
10:56 PM 34.0 °F 26.6 °F 34.0 °F 100% 29.53 in 7.0 mi North 9.2 mph - 0.01 in Rain Light Rain
11:44 PM 33.8 °F 27.7 °F 33.8 °F 100% 29.55 in 8.0 mi North 6.9 mph - 0.00 in Rain Light Rain